TimeHST,TemperatureF,Dew PointF,Humidity,Sea Level PressureIn,VisibilityMPH,Wind Direction,Wind SpeedMPH,Gust SpeedMPH,PrecipitationIn,Events,Conditions,WindDirDegrees,DateUTC
12:56 AM,72.0,64.0,76,29.96,10.0,SE,3.5,-,N/A,,Clear,130,2012-12-04 10:56:00
1:56 AM,72.0,72.0,100,29.96,10.0,SE,4.6,-,N/A,,Clear,140,2012-12-04 11:56:00
2:56 AM,72.0,66.0,81,29.95,10.0,SE,4.6,-,N/A,,Clear,130,2012-12-04 12:56:00
3:56 AM,71.1,-9999,N/A,29.94,10.0,East,3.5,-,N/A,,Clear,100,2012-12-04 13:56:00
4:56 AM,71.1,61.0,70,29.94,10.0,East,3.5,-,N/A,,Clear,100,2012-12-04 14:56:00
5:56 AM,71.1,62.1,73,29.96,10.0,East,3.5,-,N/A,,Clear,100,2012-12-04 15:56:00
6:56 AM,72.0,61.0,68,29.99,10.0,ESE,3.5,-,N/A,,Mostly Cloudy,110,2012-12-04 16:56:00
7:56 AM,73.9,64.0,71,30.00,10.0,Calm,Calm,-,N/A,,Overcast,0,2012-12-04 17:56:00
8:56 AM,75.9,66.0,71,30.03,10.0,Calm,Calm,-,N/A,,Overcast,0,2012-12-04 18:56:00
9:56 AM,78.1,68.0,71,30.04,10.0,SSE,4.6,-,N/A,,Overcast,150,2012-12-04 19:56:00
10:56 AM,79.0,64.9,62,30.03,10.0,SE,3.5,-,N/A,,Overcast,140,2012-12-04 20:56:00
11:56 AM,80.1,66.0,62,30.01,10.0,South,8.1,-,N/A,,Overcast,190,2012-12-04 21:56:00
12:56 PM,81.0,68.0,65,29.98,10.0,WSW,4.6,-,N/A,,Overcast,240,2012-12-04 22:56:00
1:56 PM,80.1,80.1,100,29.96,10.0,SSW,6.9,-,N/A,,Overcast,210,2012-12-04 23:56:00
2:56 PM,80.1,79.0,96,29.95,10.0,SW,5.8,-,N/A,,Overcast,220,2012-12-05 00:56:00
3:56 PM,79.0,66.9,66,29.96,10.0,SSE,6.9,-,N/A,,Overcast,150,2012-12-05 01:56:00
4:56 PM,75.9,64.0,67,29.96,10.0,SSE,6.9,-,0.00,,Overcast,150,2012-12-05 02:56:00
5:56 PM,77.0,61.0,58,29.96,10.0,SE,4.6,-,N/A,,Scattered Clouds,140,2012-12-05 03:56:00
6:56 PM,78.1,55.9,46,29.97,10.0,Calm,Calm,-,N/A,,Overcast,0,2012-12-05 04:56:00
7:56 PM,78.1,55.0,45,30.00,10.0,Calm,Calm,-,N/A,,Mostly Cloudy,0,2012-12-05 05:56:00
8:56 PM,73.0,59.0,61,30.03,10.0,SSE,9.2,19.6,0.01,Rain,Light Rain,150,2012-12-05 06:56:00
9:56 PM,73.0,53.1,49,30.05,10.0,SSE,10.4,-,0.03,Rain,Light Rain,150,2012-12-05 07:56:00
10:56 PM,71.1,59.0,66,30.10,10.0,SE,4.6,-,0.38,Rain,Rain,140,2012-12-05 08:56:00
11:24 PM,71.6,53.6,53,30.10,-9999.0,Calm,Calm,-,0.30,Rain,Heavy Rain,0,2012-12-05 09:24:00
11:31 PM,71.6,57.2,60,30.09,1.5,Calm,Calm,-,0.48,Rain,Heavy Rain,0,2012-12-05 09:31:00
11:35 PM,71.6,55.4,57,30.09,-9999.0,Calm,Calm,-,0.49,Rain,Rain,0,2012-12-05 09:35:00
11:42 PM,71.6,53.6,53,30.09,10.0,Calm,Calm,-,0.51,Rain,Rain,0,2012-12-05 09:42:00
11:51 PM,71.6,53.6,53,30.11,6.2,SSW,4.6,-,0.54,Rain,Rain,200,2012-12-05 09:51:00
11:56 PM,72.0,55.9,57,30.11,4.0,Calm,Calm,-,0.62,Rain,Heavy Rain,0,2012-12-05 09:56:00